Location: Dumpton Point
(51.3500°N, 1.4433°E)
Time: 05:38:17
(UTC+00:00)

Altair - Pass Details

Date: 09 October 2022
Orbit: 1501 x 1682 km, 47.2° (Epoch: 26 November)

Event Time Altitude Azimuth Distance (km) Brightness Sun altitude
Rises 02:01:32 0° 198° (SSW) 4,702 - -36.4°
Reaches altitude 10° 02:05:09 10° 187° (S) 3,748 - -36.0°
Exits shadow 02:11:07 26° 149° (SSE) 2,758 8.7 -35.3°
Maximum altitude 02:12:37 27° 135° (SE) 2,717 8.7 -35.1°
Drops below altitude 10° 02:20:18 10° 83° (E) 3,875 10.2 -34.2°
Sets 02:24:05 0° 72° (ENE) 4,889 11.0 -33.8°
